Location: *
(28.3744°N, 81.5492°W)
Time: 03:37:39
(UTC+00:00)

Cosmos 2228 - Pass Details

Date: 15 June 2025
Orbit: 566 x 593 km, 82.5° (Epoch: 11 July)

Event Time Altitude Azimuth Distance (km) Brightness Sun altitude
Rises 08:07:17 0° 359° (N) 2,764 7.1 -25.4°
Reaches altitude 10° 08:09:30 10° 3° (N) 1,864 6.2 -25.1°
Maximum altitude 08:13:33 59° 83° (E) 657 3.3 -24.5°
Enters shadow 08:13:54 56° 108° (ESE) 674 3.3 -24.5°
